This is the latest recevied weather packets stored in our database for station/object K5GHS-1. If no packets are shown the sender has not sent any weather packets the latest 10 day(s).
| Time | Temp. | Humidity | Pressure | Rain* | Wind** | Luminosity | Snow |
|---|---|---|---|---|---|---|---|
| 1788625660 | 35° C | 51% | 1013.6 hPa | 0 mm | - | 688 W/m² | - |
| 1788625359 | 35° C | 51% | 1013.7 hPa | 0 mm | - | 663 W/m² | - |
| 1788625054 | 34.44° C | 54% | 1013.7 hPa | 0 mm | - | 651 W/m² | - |
| 1788624752 | 34.44° C | 54% | 1013.5 hPa | 0 mm | - | 666 W/m² | - |
| 1788624446 | 34.44° C | 54% | 1013.6 hPa | 0 mm | - | 680 W/m² | - |
| 1788624146 | 34.44° C | 54% | 1013.5 hPa | 0 mm | - | 696 W/m² | - |
| 1788623840 | 33.89° C | 54% | 1013.7 hPa | 0 mm | - | 652 W/m² | - |
| 1788623539 | 33.89° C | 55% | 1013.7 hPa | 0 mm | - | 643 W/m² | - |
| 1788623234 | 34.44° C | 54% | 1013.7 hPa | 0 mm | - | 603 W/m² | - |
| 1788622929 | 33.89° C | 57% | 1013.5 hPa | 0 mm | - | 595 W/m² | - |
| 1788622625 | 33.33° C | 57% | 1013.8 hPa | 0 mm | - | 573 W/m² | - |
| 1788622320 | 32.78° C | 59% | 1013.6 hPa | 0 mm | - | 553 W/m² | - |
| 1788622009 | 32.78° C | 60% | 1013.6 hPa | 0 mm | - | 485 W/m² | - |
| 1788621704 | 33.33° C | 58% | 1013.6 hPa | 0 mm | - | 462 W/m² | - |
| 1788621399 | 32.78° C | 60% | 1013.6 hPa | 0 mm | - | 443 W/m² | - |
| 1788621094 | 32.22° C | 61% | 1013.3 hPa | 0 mm | - | 410 W/m² | - |
| 1788620789 | 32.22° C | 62% | 1013.5 hPa | 0 mm | - | 369 W/m² | - |
| 1788620487 | 32.22° C | 61% | 1013.4 hPa | 0 mm | - | 347 W/m² | - |
| 1788620186 | 31.67° C | 64% | 1013.5 hPa | 0 mm | - | 347 W/m² | - |
| 1788619885 | 31.67° C | 64% | 1013.6 hPa | 0 mm | - | 303 W/m² | - |
| 1788619580 | 32.22° C | 64% | 1013.5 hPa | 0 mm | - | 291 W/m² | - |
| 1788619280 | 31.67° C | 64% | 1013.4 hPa | 0 mm | - | 285 W/m² | - |
| 1788618995 | 31.67° C | 65% | 1013.5 hPa | 0 mm | - | 264 W/m² | - |
| 1788618669 | 31.11° C | 65% | 1013.4 hPa | 0 mm | - | 246 W/m² | - |
| 1788618368 | 31.11° C | 66% | 1013.5 hPa | 0 mm | - | 240 W/m² | - |
* Rain latest hour (hover to see other rain measurements)
** Current wind speed in m/s (hover to see current wind gust speed)